KK4XZ Weather Reports


Display with metric or nautical units.
time (UTC)temp
F
wind
direction
speed
MPH
gust
MPH
rain 1hr
in
rain 24hr
in
rain mn
in
humidity
%
barometer
mb
20260503203522 69 347 2.0 4.0 0.00 0.07 0.00 37 1016.6
20260503202517 69 335 1.0 3.0 0.00 0.07 0.00 36 1016.8
20260503201533 70 336 2.0 4.0 0.00 0.07 0.00 36 1017.1
20260503200528 70 262 2.0 4.0 0.00 0.07 0.00 36 1017.3
20260503195523 69 350 2.0 4.0 0.00 0.07 0.00 36 1017.3
20260503194518 69 342 1.0 4.0 0.00 0.07 0.00 37 1017.4
20260503193534 70 339 3.0 5.0 0.00 0.07 0.00 36 1017.7
20260503192529 70 303 2.0 4.0 0.00 0.07 0.00 37 1017.7
20260503191524 69 305 1.0 3.0 0.00 0.07 0.00 38 1017.8
20260503190519 68 349 2.0 6.0 0.00 0.07 0.00 38 1017.8
20260503185535 69 311 3.0 8.0 0.00 0.08 0.00 38 1018.0
20260503184530 68 322 2.0 4.0 0.00 0.09 0.00 37 1017.9
20260503183525 69 312 2.0 5.0 0.00 0.10 0.00 37 1018.2
20260503182520 69 299 2.0 4.0 0.00 0.10 0.00 37 1018.2
20260503181535 68 350 2.0 6.0 0.00 0.11 0.00 37 1018.5
20260503180530 68 341 2.0 5.0 0.00 0.12 0.00 39 1018.5
20260503175525 68 175 2.0 4.0 0.00 0.12 0.00 38 1018.7
20260503174520 68 166 2.0 5.0 0.00 0.12 0.00 38 1018.8
20260503173535 67 342 2.0 4.0 0.00 0.13 0.00 39 1018.8
20260503172530 67 1 2.0 5.0 0.00 0.13 0.00 39 1018.7
20260503171525 66 340 2.0 6.0 0.00 0.13 0.00 37 1018.7
20260503170521 66 348 3.0 6.0 0.00 0.14 0.00 39 1018.9
20260503150522 61 49 4.0 6.0 0.00 0.35 0.00 42 1019.9
20260503130524 53 23 2.0 4.0 0.00 0.45 0.00 78 1019.3
20260503110527 46 47 1.0 4.0 0.00 0.47 0.00 97 1017.8
20260503081524 49 49 2.0 4.0 0.00 0.58 0.00 97 1015.9
20260503080519 49 45 2.0 3.0 0.00 0.58 0.00 97 1015.9
20260503072520 50 71 1.0 3.0 0.00 0.58 0.00 97 1015.6
20260503071535 50 56 2.0 3.0 0.00 0.58 0.00 97 1015.5
20260503070530 50 77 2.0 4.0 0.00 0.58 0.00 97 1015.4
20260503054531 51 62 1.0 3.0 0.00 0.58 0.00 97 1014.9
20260503053526 51 44 2.0 5.0 0.00 0.58 0.00 97 1014.8
20260503052522 51 55 2.0 4.0 0.00 0.58 0.00 97 1014.8
20260503051516 51 101 2.0 5.0 0.00 0.58 0.00 97 1014.7
20260503050531 51 36 2.0 4.0 0.00 0.59 0.00 97 1014.7
20260503045526 51 27 2.0 6.0 0.00 0.59 0.00 97 1014.5
20260503044522 51 15 2.0 4.0 0.00 0.59 0.00 97 1014.5
20260503043517 51 98 2.0 5.0 0.00 0.59 0.00 97 1014.2
20260503042532 52 113 2.0 5.0 0.00 0.59 0.00 97 1014.2
20260503041527 52 44 2.0 4.0 0.00 0.60 0.00 97 1014.2
20260503040522 52 29 2.0 4.0 0.00 0.60 0.00 97 1014.0
20260503035517 52 65 2.0 4.0 0.00 0.60 0.60 97 1014.0
20260503034532 52 16 1.0 3.0 0.00 0.60 0.60 97 1013.6
20260503033528 52 79 1.0 3.0 0.00 0.60 0.60 97 1013.4
20260503032523 52 50 1.0 2.0 0.00 0.60 0.60 97 1013.5
20260503031518 53 44 1.0 3.0 0.00 0.60 0.60 97 1013.3
20260503030533 53 53 1.0 2.0 0.00 0.60 0.60 97 1013.2
20260503025529 53 48 1.0 2.0 0.00 0.60 0.60 97 1013.4
20260503024523 53 75 0.0 2.0 0.00 0.60 0.60 97 1013.2
20260503023518 53 49 1.0 3.0 0.00 0.60 0.60 97 1013.1
20260503022534 53 82 1.0 3.0 0.00 0.60 0.60 97 1013.3
20260503021528 53 54 1.0 2.0 0.00 0.60 0.60 97 1013.1
20260503020524 53 53 1.0 2.0 0.00 0.60 0.60 97 1013.1
20260503015519 53 52 1.0 2.0 0.00 0.60 0.60 97 1012.8
20260503014534 53 33 0.0 2.0 0.00 0.60 0.60 97 1012.8
20260503013529 53 51 1.0 2.0 0.00 0.60 0.60 97 1013.0
20260503012525 53 53 1.0 3.0 0.00 0.60 0.60 97 1012.7
20260503011520 54 59 1.0 3.0 0.00 0.60 0.60 97 1012.6
20260503010535 54 58 1.0 2.0 0.00 0.60 0.60 97 1012.2
20260503005530 54 32 1.0 2.0 0.00 0.60 0.60 97 1012.0
20260503004525 54 36 1.0 2.0 0.00 0.60 0.60 97 1011.8
20260503003520 54 16 1.0 3.0 0.00 0.60 0.60 97 1011.7
20260503002535 55 40 1.0 3.0 0.00 0.60 0.60 97 1011.5
20260503001530 55 39 1.0 3.0 0.00 0.60 0.60 97 1011.2
20260503000525 55 47 1.0 3.0 0.00 0.60 0.60 97 1011.1
20260502235521 55 69 1.0 2.0 0.00 0.60 0.60 97 1010.8
20260502234536 55 40 1.0 2.0 0.00 0.60 0.60 97 1011.0
20260502233531 55 36 1.0 3.0 0.00 0.60 0.60 97 1010.9
20260502232526 56 47 1.0 3.0 0.00 0.60 0.60 97 1010.8
20260502231521 56 52 1.0 2.0 0.00 0.60 0.60 97 1010.8
20260502230536 56 32 1.0 2.0 0.00 0.60 0.60 97 1010.6
20260502225532 56 8 1.0 2.0 0.00 0.60 0.60 97 1010.7
20260502224526 56 32 1.0 3.0 0.01 0.60 0.60 97 1010.5
20260502223521 56 37 1.0 3.0 0.01 0.60 0.60 97 1010.6
20260502222517 56 49 1.0 2.0 0.02 0.60 0.60 97 1010.6
20260502221532 56 23 1.0 2.0 0.03 0.60 0.60 97 1010.6
20260502220527 56 41 1.0 2.0 0.05 0.60 0.60 97 1010.5
20260502215522 56 59 1.0 3.0 0.06 0.60 0.59 97 1010.3
20260502214517 56 66 1.0 3.0 0.06 0.59 0.59 97 1009.9
20260502213533 56 31 1.0 2.0 0.05 0.59 0.59 97 1010.1
20260502212528 56 61 2.0 4.0 0.05 0.59 0.58 97 1009.8
20260502211523 56 61 2.0 5.0 0.04 0.57 0.57 97 1009.8
20260502210518 56 44 1.0 2.0 0.02 0.55 0.55 97 1010.1
20260502205533 56 27 1.0 3.0 0.01 0.54 0.54 97 1010.1
20260502204528 56 60 1.0 4.0 0.01 0.54 0.54 97 1009.7